Weather History for Savannah Hunter, GA

Change the Weather History Date:

Monday, January 27, 2014

  Actual Average Record
Temperature  
Mean Temperature 58 °F -  
Max Temperature 72 °F 59 °F 75 °F (1999)
Min Temperature 44 °F 39 °F 26 °F (2000)
Degree Days  
Heating Degree Days 7    
Growing Degree Days 8 (Base 50)    
Moisture  
Dew Point 46 °F    
Average Humidity 69    
Maximum Humidity 90    
Minimum Humidity 40    
Precipitation  
Precipitation 0.00 in - - ()
Sea Level Pressure  
Sea Level Pressure 29.94 in    
Wind  
Wind Speed 5 mph (SW)    
Max Wind Speed 13 mph    
Max Gust Speed 17 mph    
Visibility 10 miles    
Events Rain    
Averages and records for this station are not official NWS values.
T = Trace of Precipitation, MM = Missing Value Source: NWS Daily Summary

Daily Weather History Graph

Daily Weather History Graph

Search for Another Location

Airport:

Trip Planner

Search our weather history database for the weather conditions in past years. The results will help you decide how hot, cold, wet, or windy it might be!

Date:

Astronomy

Jan. 27, 2014 Rise Set
Actual Time 7:21 AM EST 5:53 PM EST
Civil Twilight 6:55 AM EST 6:19 PM EST
Nautical Twilight 6:25 AM EST 6:49 PM EST
Astronomical Twilight 5:56 AM EST 7:18 PM EST
Moon 3:58 AM EST (1/27) 2:41 PM EST (1/27)
Length of Visible Light 11h 24m
Length of Day
10h 32m
Waning Crescent, 15% of the Moon is Illuminated
Jan 27
Waning Crescent
Jan 30
New
Feb 6
First Quarter
Feb 14
Full
Feb 22
Last Quarter

Hourly Weather History & Observations

Time (EST) Temp. Dew Point Humidity Pressure Visibility Wind Dir Wind Speed Gust Speed Precip Events Conditions
12:59 AM 46.9 °F 37.6 °F 70% 29.98 in 10.0 mi SSW 3.5 mph - N/A   Mostly Cloudy
1:59 AM 47.7 °F 37.6 °F 68% 29.95 in 10.0 mi ESE 3.5 mph - N/A   Mostly Cloudy
2:58 AM 45.3 °F 37.9 °F 75% 29.97 in 10.0 mi South 2.3 mph - N/A   Mostly Cloudy
3:58 AM 45.0 °F 39.0 °F 80% 29.96 in 10.0 mi SSW 2.3 mph - N/A   Overcast
4:58 AM 44.8 °F 39.9 °F 83% 29.96 in 10.0 mi SW 2.3 mph - N/A   Mostly Cloudy
5:58 AM 45.9 °F 40.3 °F 81% 29.95 in 10.0 mi West 2.3 mph - N/A   Overcast
6:58 AM 47.8 °F 42.1 °F 80% 29.96 in 10.0 mi West 6.9 mph - N/A   Overcast
7:58 AM 45.3 °F 42.4 °F 90% 29.96 in 10.0 mi South 1.2 mph - N/A   Partly Cloudy
8:58 AM 51.1 °F 45.0 °F 80% 29.98 in 10.0 mi Variable 5.8 mph - N/A   Clear
9:58 AM 57.9 °F 48.6 °F 71% 29.98 in 10.0 mi Variable 5.8 mph - N/A   Mostly Cloudy
10:58 AM 63.0 °F 49.6 °F 62% 29.98 in 10.0 mi SSW 6.9 mph - N/A   Clear
11:58 AM 66.2 °F 49.8 °F 55% 29.94 in 10.0 mi West 11.5 mph - N/A   Partly Cloudy
12:58 PM 68.7 °F 49.6 °F 51% 29.92 in 10.0 mi West 11.5 mph - N/A   Partly Cloudy
1:58 PM 70.9 °F 48.0 °F 44% 29.88 in 10.0 mi West 12.7 mph - N/A   Clear
2:58 PM 71.8 °F 47.5 °F 42% 29.87 in 10.0 mi SW 12.7 mph - N/A   Clear
3:58 PM 72.7 °F 46.8 °F 40% 29.86 in 10.0 mi WSW 8.1 mph 17.3 mph N/A   Partly Cloudy
4:58 PM 69.4 °F 47.7 °F 46% 29.88 in 10.0 mi WSW 8.1 mph - N/A   Partly Cloudy
5:58 PM 64.6 °F 48.4 °F 56% 29.90 in 10.0 mi West 3.5 mph - N/A   Scattered Clouds
6:58 PM 59.2 °F 48.2 °F 67% 29.92 in 10.0 mi SE 3.5 mph - N/A   Scattered Clouds
7:22 PM 59.0 °F 50.0 °F 72% 29.91 in 10.0 mi SE 3.5 mph - N/A Rain Light Rain
7:32 PM 59.0 °F 51.8 °F 77% 29.92 in 10.0 mi SSE 2.3 mph - N/A   Mostly Cloudy
7:58 PM 58.6 °F 51.1 °F 76% 29.94 in 10.0 mi Calm Calm - 0.00 in   Overcast
8:58 PM 56.5 °F 50.7 °F 81% 29.96 in 10.0 mi Calm Calm - N/A   Mostly Cloudy
9:58 PM 56.7 °F 51.3 °F 82% 29.98 in 10.0 mi West 2.3 mph - N/A   Overcast
10:58 PM 59.2 °F 52.3 °F 78% 29.99 in 10.0 mi NW 3.5 mph - N/A   Overcast
11:58 PM 57.7 °F 54.0 °F 87% 29.99 in 10.0 mi NNW 3.5 mph - N/A   Overcast